K6OUA-11 Weather Reports


time (UTC)temp
F
wind
direction
speed
knots
gust
knots
rain 1hr
in
rain 24hr
in
rain mn
in
humidity
%
barometer
mb
20260902192124 77 284 5.2 11.3 0.00 0.00 0.00 44
20260902191920 78 313 2.6 11.3 0.00 0.00 0.00 43
20260902191720 78 267 8.7 10.4 0.00 0.00 0.00 42
20260902191518 78 268 7.8 10.4 0.00 0.00 0.00 43
20260902191316 77 248 3.5 10.4 0.00 0.00 0.00 44
20260902191112 77 271 7.0 11.3 0.00 0.00 0.00 43
20260902190912 77 278 7.0 11.3 0.00 0.00 0.00 43
20260902190710 77 278 4.3 8.7 0.00 0.00 0.00 44
20260902190306 78 255 0.9 8.7 0.00 0.00 0.00 44
20260902185900 77 247 6.1 10.4 0.00 0.00 0.00 43
20260902185658 77 264 7.8 11.3 0.00 0.00 0.00 44
20260902185255 77 285 7.0 11.3 0.00 0.00 0.00 45
20260902185052 77 262 5.2 14.8 0.00 0.00 0.00 45
20260902184851 77 270 7.0 14.8 0.00 0.00 0.00 46
20260902184651 77 261 9.6 12.2 0.00 0.00 0.00 46
20260902184447 76 255 7.0 12.2 0.00 0.00 0.00 47
20260902184245 77 277 7.0 11.3 0.00 0.00 0.00 46
20260902184043 77 285 7.8 11.3 0.00 0.00 0.00 46
20260902183841 77 296 1.7 11.3 0.00 0.00 0.00 47
20260902183639 77 251 1.7 11.3 0.00 0.00 0.00 47
20260902183439 76 288 6.1 11.3 0.00 0.00 0.00 47
20260902183236 77 250 10.4 8.7 0.00 0.00 0.00 47
20260902183034 77 250 6.1 8.7 0.00 0.00 0.00 47
20260902182833 77 248 0.9 8.7 0.00 0.00 0.00 47
20260902182721 77 299 1.7 8.7 0.00 0.00 0.00 48
20260902182630 77 299 1.7 8.7 0.00 0.00 0.00 48
20260902182429 76 285 5.2 8.7 0.00 0.00 0.00 47
20260902182225 77 275 7.8 13.9 0.00 0.00 0.00 47
20260902182024 77 275 5.2 13.9 0.00 0.00 0.00 47
20260902181823 77 271 6.1 13.9 0.00 0.00 0.00 47
20260902181619 76 329 2.6 7.8 0.00 0.00 0.00 49
20260902181417 76 279 4.3 7.8 0.00 0.00 0.00 49
20260902181013 76 270 7.0 7.8 0.00 0.00 0.00 50
20260902180813 76 293 4.3 7.8 0.00 0.00 0.00 50
20260902180409 75 219 0.0 8.7 0.00 0.00 0.00 52
20260902180208 74 291 0.0 9.6 0.00 0.00 0.00 52
20260902175803 74 279 7.0 9.6 0.00 0.00 0.00 52
20260902175601 74 291 6.1 8.7 0.00 0.00 0.00 52
20260902175357 74 227 0.0 8.7 0.00 0.00 0.00 53
20260902175158 75 281 5.2 6.1 0.00 0.00 0.00 52
20260902174954 75 264 7.8 6.1 0.00 0.00 0.00 52
20260902174754 75 261 7.8 6.1 0.00 0.00 0.00 52
20260902174550 75 262 1.7 7.8 0.00 0.00 0.00 52
20260902174348 75 286 5.2 7.8 0.00 0.00 0.00 52
20260902174148 75 268 5.2 8.7 0.00 0.00 0.00 51
20260902173946 75 258 7.0 8.7 0.00 0.00 0.00 51
20260902173742 76 300 4.3 7.8 0.00 0.00 0.00 51
20260902173540 76 284 4.3 7.8 0.00 0.00 0.00 51
20260902173338 76 225 0.0 7.8 0.00 0.00 0.00 52
20260902173136 76 279 4.3 7.8 0.00 0.00 0.00 51
20260902172934 76 254 6.1 7.8 0.00 0.00 0.00 51
20260902172732 76 258 6.1 6.1 0.00 0.00 0.00 51
20260902172530 76 246 0.0 6.1 0.00 0.00 0.00 52
20260902172328 75 146 0.0 6.1 0.00 0.00 0.00 52
20260902172126 76 288 3.5 2.6 0.00 0.00 0.00 51
20260902171924 76 150 2.6 2.6 0.00 0.00 0.00 51
20260902171645 75 154 0.0 3.5 0.00 0.00 0.00 53
20260902171520 75 255 0.0 3.5 0.00 0.00 0.00 51
20260902171318 75 154 0.0 3.5 0.00 0.00 0.00 53
20260902171116 75 175 0.0 1.7 0.00 0.00 0.00 53
20260902170858 75 222 0.0 4.3 0.00 0.00 0.00 53
20260902170712 75 222 0.0 4.3 0.00 0.00 0.00 53
20260902170510 75 222 0.0 4.3 0.00 0.00 0.00 53
20260902170310 75 139 0.0 4.3 0.00 0.00 0.00 53
20260902170106 75 139 0.0 4.3 0.00 0.00 0.00 53
20260902165904 74 137 2.6 4.3 0.00 0.00 0.00 53
20260902165702 75 102 3.5 5.2 0.00 0.00 0.00 53
20260902165500 74 132 0.0 5.2 0.00 0.00 0.00 55
20260902165259 74 116 1.7 5.2 0.00 0.00 0.00 55
20260902165057 73 143 1.7 3.5 0.00 0.00 0.00 56
20260902164855 73 104 4.3 3.5 0.00 0.00 0.00 57
20260902164451 72 91 0.9 1.7 0.00 0.00 0.00 59
20260902164251 71 275 0.0 1.7 0.00 0.00 0.00 59
20260902164047 71 275 0.0 2.6 0.00 0.00 0.00 59
20260902163845 71 172 0.0 2.6 0.00 0.00 0.00 60
20260902163643 71 282 0.9 0.9 0.00 0.00 0.00 58
20260902163441 71 258 0.9 0.9 0.00 0.00 0.00 59
20260902163239 71 247 0.0 3.5 0.00 0.00 0.00 61
20260902163037 70 210 0.0 3.5 0.00 0.00 0.00 60
20260902162852 70 213 0.9 4.3 0.00 0.00 0.00 61
20260902162835 70 210 0.0 3.5 0.00 0.00 0.00 61
20260902162633 70 213 0.9 4.3 0.00 0.00 0.00 61
20260902162431 69 260 0.0 4.3 0.00 0.00 0.00 61
20260902162229 69 285 2.6 2.6 0.00 0.00 0.00 61
20260902161825 69 234 0.0 2.6 0.00 0.00 0.00 64
20260902161623 68 215 0.0 3.5 0.00 0.00 0.00 65
20260902161421 68 215 0.0 3.5 0.00 0.00 0.00 65
20260902161219 68 225 0.9 4.3 0.00 0.00 0.00 66
20260902161018 68 241 0.0 4.3 0.00 0.00 0.00 66
20260902160816 67 292 0.0 4.3 0.00 0.00 0.00 67
20260902160614 67 262 0.9 4.3 0.00 0.00 0.00 67
20260902160412 67 265 0.0 4.3 0.00 0.00 0.00 68
20260902160210 67 285 1.7 3.5 0.00 0.00 0.00 69
20260902155806 66 293 2.6 3.5 0.00 0.00 0.00 69
20260902155604 66 299 2.6 0.0 0.00 0.00 0.00 71
20260902155546 66 267 0.0 0.0 0.00 0.00 0.00 71
20260902155430 65 267 0.0 0.0 0.00 0.00 0.00 72
20260902155402 66 303 1.7 0.0 0.00 0.00 0.00 71
20260902155200 66 267 0.0 0.0 0.00 0.00 0.00 71
20260902154958 65 267 0.0 0.0 0.00 0.00 0.00 72
20260902154800 65 267 0.0 3.5 0.00 0.00 0.00 72
20260902154750 65 267 0.0 3.5 0.00 0.00 0.00 73
20260902154555 65 267 0.0 3.5 0.00 0.00 0.00 72
20260902154353 65 267 0.0 3.5 0.00 0.00 0.00 73
20260902154151 64 267 0.9 0.0 0.00 0.00 0.00 73
20260902153949 64 253 0.0 0.0 0.00 0.00 0.00 74
20260902153748 64 227 0.0 0.0 0.00 0.00 0.00 74
20260902153343 63 227 0.0 0.0 0.00 0.00 0.00 73
20260902153141 63 227 0.0 0.0 0.00 0.00 0.00 74
20260902152939 63 227 0.0 0.0 0.00 0.00 0.00 74
20260902152535 63 227 0.0 0.0 0.00 0.00 0.00 74
20260902152334 63 227 0.0 0.0 0.00 0.00 0.00 73
20260902152132 63 227 0.0 0.0 0.00 0.00 0.00 73
20260902151930 63 227 0.0 0.0 0.00 0.00 0.00 72
20260902151728 63 227 0.0 0.0 0.00 0.00 0.00 72
20260902151526 63 227 0.0 0.0 0.00 0.00 0.00 73
20260902151324 64 227 0.0 0.0 0.00 0.00 0.00 71
20260902151122 64 227 0.0 0.0 0.00 0.00 0.00 71
20260902150920 64 227 0.0 0.0 0.00 0.00 0.00 71
20260902150718 64 227 0.0 0.0 0.00 0.00 0.00 72
20260902150349 63 63 0.0 0.0 0.00 0.00 0.00 73
20260902150315 63 63 0.0 0.0 0.00 0.00 0.00 73
20260902150113 63 63 0.0 0.0 0.00 0.00 0.00 74
20260902145911 62 63 0.0 0.0 0.00 0.00 0.00 75
20260902145507 61 63 0.0 1.7 0.00 0.00 0.00 77
20260902145306 61 63 0.0 1.7 0.00 0.00 0.00 77
20260902145103 61 63 0.0 2.6 0.00 0.00 0.00 78
20260902144901 60 135 0.9 2.6 0.00 0.00 0.00 79
20260902144659 60 104 0.9 2.6 0.00 0.00 0.00 79
20260902144255 59 113 0.9 2.6 0.00 0.00 0.00 80
20260902144054 59 119 1.7 2.6 0.00 0.00 0.00 80
20260902143852 59 47 0.0 2.6 0.00 0.00 0.00 80
20260902143650 58 113 1.7 2.6 0.00 0.00 0.00 80
20260902143448 58 101 1.7 2.6 0.00 0.00 0.00 81
20260902143246 58 106 1.7 2.6 0.00 0.00 0.00 81
20260902143044 58 126 1.7 1.7 0.00 0.00 0.00 82
20260902142842 58 116 1.7 1.7 0.00 0.00 0.00 82
20260902142640 58 111 1.7 0.0 0.00 0.00 0.00 82
20260902142438 57 61 0.0 0.0 0.00 0.00 0.00 82
20260902142236 57 61 0.0 0.0 0.00 0.00 0.00 83
20260902142034 57 61 0.0 0.0 0.00 0.00 0.00 83
20260902141833 57 61 0.0 0.0 0.00 0.00 0.00 84
20260902141631 57 61 0.0 0.0 0.00 0.00 0.00 84
20260902141430 57 61 0.0 0.0 0.00 0.00 0.00 84
20260902141227 57 61 0.0 0.0 0.00 0.00 0.00 84
20260902141027 56 61 0.0 0.0 0.00 0.00 0.00 84
20260902140823 56 61 0.0 0.0 0.00 0.00 0.00 84
20260902140303 56 61 0.0 0.0 0.00 0.00 0.00 85
20260902140217 56 61 0.0 0.0 0.00 0.00 0.00 84
20260902135814 56 61 0.0 0.0 0.00 0.00 0.00 85
20260902135612 56 61 0.0 0.0 0.00 0.00 0.00 85
20260902135410 56 61 0.0 0.0 0.00 0.00 0.00 86
20260902135208 55 61 0.0 0.0 0.00 0.00 0.00 86
20260902134812 55 61 0.0 0.0 0.00 0.00 0.00 85
20260902134604 55 61 0.0 0.0 0.00 0.00 0.00 85
20260902134400 55 61 0.0 0.0 0.00 0.00 0.00 85
20260902134200 55 61 0.0 0.0 0.00 0.00 0.00 85
20260902133958 55 61 0.0 0.0 0.00 0.00 0.00 86
20260902133754 55 61 0.0 0.0 0.00 0.00 0.00 86
20260902133554 55 61 0.0 0.0 0.00 0.00 0.00 86
20260902133151 55 61 0.0 0.0 0.00 0.00 0.00 86
20260902132947 55 61 0.0 0.0 0.00 0.00 0.00 85
20260902132745 54 61 0.0 0.0 0.00 0.00 0.00 86
20260902132543 54 61 0.0 0.0 0.00 0.00 0.00 86
20260902132341 54 61 0.0 0.0 0.00 0.00 0.00 86
20260902132141 54 61 0.0 0.0 0.00 0.00 0.00 86
20260902131937 54 61 0.0 0.0 0.00 0.00 0.00 86
20260902131735 54 61 0.0 0.0 0.00 0.00 0.00 86
20260902131534 54 61 0.0 0.0 0.00 0.00 0.00 86
20260902131332 54 61 0.0 0.0 0.00 0.00 0.00 86
20260902131130 54 61 0.0 0.0 0.00 0.00 0.00 86
20260902130928 54 61 0.0 0.0 0.00 0.00 0.00 86
20260902130524 54 61 0.0 0.0 0.00 0.00 0.00 86
20260902130322 54 61 0.0 0.0 0.00 0.00 0.00 86
20260902130120 54 61 0.0 0.0 0.00 0.00 0.00 86
20260902125918 54 61 0.0 0.0 0.00 0.00 0.00 86
20260902125716 54 61 0.0 0.0 0.00 0.00 0.00 86
20260902125514 54 61 0.0 0.0 0.00 0.00 0.00 86
20260902125313 54 61 0.0 0.0 0.00 0.00 0.00 86
20260902125111 54 61 0.0 0.0 0.00 0.00 0.00 86
20260902124909 54 61 0.0 0.0 0.00 0.00 0.00 86
20260902124707 54 61 0.0 0.0 0.00 0.00 0.00 86
20260902124303 55 61 0.0 0.0 0.00 0.00 0.00 86
20260902124102 55 61 0.0 0.0 0.00 0.00 0.00 86
20260902123859 55 61 0.0 0.0 0.00 0.00 0.00 86
20260902123657 55 61 0.0 0.0 0.00 0.00 0.00 86
20260902123455 55 61 0.0 0.0 0.00 0.00 0.00 87
20260902123254 55 61 0.0 0.0 0.00 0.00 0.00 87
20260902123052 55 61 0.0 0.0 0.00 0.00 0.00 87
20260902122850 55 61 0.0 0.0 0.00 0.00 0.00 86
20260902122648 55 61 0.0 0.0 0.00 0.00 0.00 86
20260902122446 55 61 0.0 0.0 0.00 0.00 0.00 86
20260902122244 55 61 0.0 0.0 0.00 0.00 0.00 87
20260902122042 55 61 0.0 0.0 0.00 0.00 0.00 86
20260902121840 55 61 0.0 0.0 0.00 0.00 0.00 86
20260902121638 55 61 0.0 0.0 0.00 0.00 0.00 86
20260902121436 55 61 0.0 0.0 0.00 0.00 0.00 86
20260902121234 55 61 0.0 0.0 0.00 0.00 0.00 87
20260902121033 55 61 0.0 0.0 0.00 0.00 0.00 87
20260902120831 55 61 0.0 0.0 0.00 0.00 0.00 86
20260902120629 55 61 0.0 0.0 0.00 0.00 0.00 87
20260902120427 55 61 0.0 0.0 0.00 0.00 0.00 87
20260902120023 55 61 0.0 0.0 0.00 0.00 0.00 86
20260902115821 55 61 0.0 0.0 0.00 0.00 0.00 86
20260902115619 55 61 0.0 0.0 0.00 0.00 0.00 86
20260902115417 55 61 0.0 0.0 0.00 0.00 0.00 86
20260902115215 55 61 0.0 0.0 0.00 0.00 0.00 85
20260902115014 55 61 0.0 0.0 0.00 0.00 0.00 85
20260902114812 55 61 0.0 0.0 0.00 0.00 0.00 85
20260902114610 55 61 0.0 0.0 0.00 0.00 0.00 85
20260902114408 55 61 0.0 0.0 0.00 0.00 0.00 85
20260902113802 56 61 0.0 0.0 0.00 0.00 0.00 86
20260902113600 56 61 0.0 0.0 0.00 0.00 0.00 86
20260902113358 56 61 0.0 0.0 0.00 0.00 0.00 86
20260902113156 56 61 0.0 0.0 0.00 0.00 0.00 86
20260902112954 56 61 0.0 0.0 0.00 0.00 0.00 86
20260902112752 56 61 0.0 0.0 0.00 0.00 0.00 86
20260902112551 56 61 0.0 0.0 0.00 0.00 0.00 86
20260902112349 56 61 0.0 0.0 0.00 0.00 0.00 86
20260902112147 56 61 0.0 0.0 0.00 0.00 0.00 86
20260902111945 56 61 0.0 0.0 0.00 0.00 0.00 86
20260902111743 56 61 0.0 3.5 0.00 0.00 0.00 86
20260902111541 56 61 0.0 3.5 0.00 0.00 0.00 86
20260902111339 56 61 0.0 3.5 0.00 0.00 0.00 86
20260902111137 56 61 0.0 0.0 0.00 0.00 0.00 86
20260902110935 56 61 0.0 0.0 0.00 0.00 0.00 86
20260902110734 56 33 0.0 0.0 0.00 0.00 0.00 86
20260902110532 56 33 0.0 0.0 0.00 0.00 0.00 86
20260902110330 56 33 0.0 0.0 0.00 0.00 0.00 86
20260902110128 56 33 0.0 0.9 0.00 0.00 0.00 86
20260902105926 56 33 0.0 0.9 0.00 0.00 0.00 86
20260902105724 56 33 0.0 0.9 0.00 0.00 0.00 87
20260902105522 56 33 0.0 0.9 0.00 0.00 0.00 87
20260902105320 56 33 0.0 0.9 0.00 0.00 0.00 87
20260902105118 56 54 0.0 0.0 0.00 0.00 0.00 87
20260902104916 56 54 0.0 0.0 0.00 0.00 0.00 87
20260902104714 56 54 0.0 1.7 0.00 0.00 0.00 87
20260902104312 56 54 0.0 1.7 0.00 0.00 0.00 87
20260902104111 56 54 0.0 2.6 0.00 0.00 0.00 87
20260902103907 56 73 0.9 2.6 0.00 0.00 0.00 86
20260902103705 56 104 1.7 1.7 0.00 0.00 0.00 86
20260902103503 56 109 1.7 1.7 0.00 0.00 0.00 87
20260902103301 57 70 0.0 1.7 0.00 0.00 0.00 87
20260902103059 57 78 0.0 0.0 0.00 0.00 0.00 87
20260902102857 57 78 0.0 0.0 0.00 0.00 0.00 87
20260902102655 57 78 0.0 0.0 0.00 0.00 0.00 87
20260902102454 57 78 0.0 0.0 0.00 0.00 0.00 87
20260902102050 57 78 0.0 0.0 0.00 0.00 0.00 87
20260902101848 57 78 0.0 0.0 0.00 0.00 0.00 86
20260902101646 57 78 0.0 0.0 0.00 0.00 0.00 86
20260902101444 57 78 0.0 0.0 0.00 0.00 0.00 86
20260902101242 57 78 0.0 0.0 0.00 0.00 0.00 85
20260902101040 57 78 0.0 0.0 0.00 0.00 0.00 85
20260902100838 58 78 0.0 0.0 0.00 0.00 0.00 85
20260902100636 58 78 0.0 1.7 0.00 0.00 0.00 85
20260902100435 58 78 0.0 1.7 0.00 0.00 0.00 85
20260902100233 58 78 0.0 2.6 0.00 0.00 0.00 86
20260902100031 58 78 0.0 2.6 0.00 0.00 0.00 86
20260902095829 58 94 0.0 2.6 0.00 0.00 0.00 86
20260902095627 58 109 2.6 0.0 0.00 0.00 0.00 87
20260902095425 58 50 0.0 0.0 0.00 0.00 0.00 86
20260902095223 58 50 0.0 0.0 0.00 0.00 0.00 87
20260902095021 58 50 0.0 0.0 0.00 0.00 0.00 87
20260902094819 58 50 0.0 0.0 0.00 0.00 0.00 87
20260902094617 58 50 0.0 0.9 0.00 0.00 0.00 87
20260902094416 58 50 0.0 0.9 0.00 0.00 0.00 87
20260902094214 58 50 0.0 1.7 0.00 0.00 0.00 87
20260902094012 58 50 0.0 1.7 0.00 0.00 0.00 87
20260902093810 58 56 0.0 1.7 0.00 0.00 0.00 87
20260902093608 58 46 0.0 3.5 0.00 0.00 0.00 87
20260902093406 58 46 0.0 3.5 0.00 0.00 0.00 87
20260902093204 58 68 0.0 3.5 0.00 0.00 0.00 87
20260902092800 58 85 2.6 3.5 0.00 0.00 0.00 86
20260902092558 58 87 2.6 3.5 0.00 0.00 0.00 86
20260902092357 58 81 0.9 3.5 0.00 0.00 0.00 86
20260902092155 58 143 1.7 3.5 0.00 0.00 0.00 86
20260902091953 58 71 0.0 3.5 0.00 0.00 0.00 86
20260902091751 58 90 0.9 3.5 0.00 0.00 0.00 86
20260902091549 58 101 0.9 2.6 0.00 0.00 0.00 86
20260902091347 58 87 1.7 2.6 0.00 0.00 0.00 86
20260902091145 58 94 1.7 4.3 0.00 0.00 0.00 86
20260902090943 58 82 0.9 4.3 0.00 0.00 0.00 86
20260902090743 58 73 0.0 0.0 0.00 0.00 0.00 86
20260902090339 58 122 1.7 0.0 0.00 0.00 0.00 87
20260902085935 58 291 0.0 0.0 0.00 0.00 0.00 86
20260902085732 58 291 0.0 0.0 0.00 0.00 0.00 86
20260902085530 58 291 0.0 0.0 0.00 0.00 0.00 86
20260902085328 58 291 0.0 0.0 0.00 0.00 0.00 86
20260902085126 58 291 0.0 0.0 0.00 0.00 0.00 86
20260902084926 58 291 0.0 0.0 0.00 0.00 0.00 87
20260902084520 58 291 0.0 0.0 0.00 0.00 0.00 87
20260902084318 58 291 0.0 0.0 0.00 0.00 0.00 87
20260902084117 58 291 0.0 0.0 0.00 0.00 0.00 87
20260902083916 58 291 0.0 0.0 0.00 0.00 0.00 87
20260902083713 58 291 0.0 0.0 0.00 0.00 0.00 87
20260902083512 58 291 0.0 0.0 0.00 0.00 0.00 87
20260902083309 58 291 0.0 0.0 0.00 0.00 0.00 86
20260902083107 58 291 0.0 0.0 0.00 0.00 0.00 86
20260902082907 58 291 0.0 0.0 0.00 0.00 0.00 86
20260902082703 58 291 0.0 0.0 0.00 0.00 0.00 86
20260902082501 58 291 0.0 0.0 0.00 0.00 0.00 86
20260902082259 58 291 0.0 0.0 0.00 0.00 0.00 86
20260902082057 58 291 0.0 0.0 0.00 0.00 0.00 86
20260902081856 58 291 0.0 0.0 0.00 0.00 0.00 86
20260902081453 58 291 0.0 0.0 0.00 0.00 0.00 86
20260902081250 58 291 0.0 0.0 0.00 0.00 0.00 86
20260902081048 58 291 0.0 0.0 0.00 0.00 0.00 86
20260902080846 58 291 0.0 0.0 0.00 0.00 0.00 86
20260902080644 58 291 0.0 0.0 0.00 0.00 0.00 86
20260902080442 58 291 0.0 0.0 0.00 0.00 0.00 86
20260902080240 58 291 0.0 0.0 0.00 0.00 0.00 86
20260902080040 58 291 0.0 0.0 0.00 0.00 0.00 86
20260902075837 58 291 0.0 0.0 0.00 0.00 0.00 86
20260902075635 58 291 0.0 0.0 0.00 0.00 0.00 86
20260902075433 58 291 0.0 0.0 0.00 0.00 0.00 86
20260902075231 57 291 0.0 0.0 0.00 0.00 0.00 85
20260902075029 57 291 0.0 0.0 0.00 0.00 0.00 85
20260902074827 58 291 0.0 0.0 0.00 0.00 0.00 85
20260902074625 58 291 0.0 0.0 0.00 0.00 0.00 85
20260902074423 58 291 0.0 0.0 0.00 0.00 0.00 85
20260902074221 58 291 0.0 0.0 0.00 0.00 0.00 85
20260902074019 58 291 0.0 0.0 0.00 0.00 0.00 85
20260902073817 58 291 0.0 0.0 0.00 0.00 0.00 85
20260902073616 59 291 0.0 0.0 0.00 0.00 0.00 85
20260902073414 59 291 0.0 0.0 0.00 0.00 0.00 85
20260902073212 59 291 0.0 0.0 0.00 0.00 0.00 85
20260902073010 59 291 0.0 0.0 0.00 0.00 0.00 85
20260902072808 59 291 0.0 0.0 0.00 0.00 0.00 85
20260902072606 59 291 0.0 0.0 0.00 0.00 0.00 85
20260902072404 59 291 0.0 0.0 0.00 0.00 0.00 85
20260902072202 59 291 0.0 0.0 0.00 0.00 0.00 84
20260902072002 59 291 0.0 0.0 0.00 0.00 0.00 84
20260902071758 59 291 0.0 0.0 0.00 0.00 0.00 84
20260902071556 59 291 0.0 0.0 0.00 0.00 0.00 84
20260902071355 59 291 0.0 0.0 0.00 0.00 0.00 84
20260902071155 59 291 0.0 0.0 0.00 0.00 0.00 84
20260902070951 59 291 0.0 0.0 0.00 0.00 0.00 84
20260902070749 59 291 0.0 0.0 0.00 0.00 0.00 84
20260902070547 59 291 0.0 0.0 0.00 0.00 0.00 84
20260902070347 59 291 0.0 0.0 0.00 0.00 0.00 84
20260902070145 59 291 0.0 0.0 0.00 0.00 0.00 84
20260902065943 59 291 0.0 0.0 0.00 0.00 0.00 84
20260902065739 59 291 0.0 0.0 0.00 0.00 0.00 83
20260902065539 59 291 0.0 0.0 0.00 0.00 0.00 84
20260902064932 60 291 0.0 1.7 0.00 0.00 0.00 83
20260902064730 60 291 0.0 1.7 0.00 0.00 0.00 83
20260902064528 60 291 0.0 1.7 0.00 0.00 0.00 83
20260902064326 60 306 0.0 1.7 0.00 0.00 0.00 83
20260902064124 60 305 1.7 0.0 0.00 0.00 0.00 83
20260902063924 60 282 0.0 0.0 0.00 0.00 0.00 83
20260902063720 60 282 0.0 1.7 0.00 0.00 0.00 83
20260902063520 60 282 0.0 1.7 0.00 0.00 0.00 83
20260902063317 60 282 0.0 1.7 0.00 0.00 0.00 83
20260902063116 60 298 0.0 0.0 0.00 0.00 0.00 83
20260902062915 60 302 0.9 0.0 0.00 0.00 0.00 83
20260902062711 60 12 0.0 0.0 0.00 0.00 0.00 83
20260902062511 60 12 0.0 0.0 0.00 0.00 0.00 83
20260902062309 60 12 0.0 0.0 0.00 0.00 0.00 83
20260902062105 60 12 0.0 0.0 0.00 0.00 0.00 83
20260902061701 61 12 0.0 0.0 0.00 0.00 0.00 82
20260902061257 61 12 0.0 0.0 0.00 0.00 0.00 83
20260902061056 61 12 0.0 0.0 0.00 0.00 0.00 83
20260902060856 61 12 0.0 0.0 0.00 0.00 0.00 83
20260902060450 61 12 0.0 0.0 0.00 0.00 0.00 83
20260902060250 61 12 0.0 0.0 0.00 0.00 0.00 82
20260902060046 61 12 0.0 0.0 0.00 0.00 0.00 82
20260902055642 61 12 0.0 0.0 0.00 0.00 0.00 82
20260902055442 61 12 0.0 0.0 0.00 0.00 0.00 82
20260902055240 61 12 0.0 0.0 0.00 0.00 0.00 82
20260902055038 62 12 0.0 0.0 0.00 0.00 0.00 82
20260902054837 62 12 0.0 0.0 0.00 0.00 0.00 82
20260902054433 62 12 0.0 0.0 0.00 0.00 0.00 82
20260902054229 62 12 0.0 0.0 0.00 0.00 0.00 82
20260902054029 62 12 0.0 0.0 0.00 0.00 0.00 82
20260902053827 62 12 0.0 0.0 0.00 0.00 0.00 82
20260902053623 62 12 0.0 0.0 0.00 0.00 0.00 82
20260902052816 62 12 0.0 0.9 0.00 0.00 0.00 80
20260902052614 62 12 0.0 0.0 0.00 0.00 0.00 79
20260902052412 62 12 0.0 0.0 0.00 0.00 0.00 79
20260902052008 63 12 0.0 0.0 0.00 0.00 0.00 79
20260902051806 63 12 0.0 0.0 0.00 0.00 0.00 79
20260902051606 63 12 0.0 1.7 0.00 0.00 0.00 80
20260902051404 63 12 0.0 1.7 0.00 0.00 0.00 80
20260902051202 63 12 0.0 0.0 0.00 0.00 0.00 79
20260902050958 63 12 0.0 0.0 0.00 0.00 0.00 79
20260902050756 63 16 0.0 0.0 0.00 0.00 0.00 79
20260902050555 63 16 0.0 0.0 0.00 0.00 0.00 80
20260902050355 63 16 0.0 0.0 0.00 0.00 0.00 80
20260902045950 63 16 0.0 0.9 0.00 0.00 0.00 79
20260902045749 63 16 0.0 0.9 0.00 0.00 0.00 79
20260902045343 63 288 0.0 0.0 0.00 0.00 0.00 79
20260902045143 64 288 0.0 0.0 0.00 0.00 0.00 79
20260902044941 64 288 0.0 0.0 0.00 0.00 0.00 79
20260902044737 64 288 0.0 0.0 0.00 0.00 0.00 78
20260902044537 64 288 0.0 0.0 0.00 0.00 0.00 78
20260902044334 64 288 0.0 0.0 0.00 0.00 0.00 78
20260902044132 64 288 0.0 0.0 0.00 0.00 0.00 78
20260902043931 64 288 0.0 0.0 0.00 0.00 0.00 78
20260902043728 65 288 0.0 0.0 0.00 0.00 0.00 78
20260902043526 65 288 0.0 0.0 0.00 0.00 0.00 77
20260902043326 65 288 0.0 0.0 0.00 0.00 0.00 77
20260902043122 65 288 0.0 0.0 0.00 0.00 0.00 77
20260902042920 65 288 0.0 0.0 0.00 0.00 0.00 77
20260902042718 65 288 0.0 0.0 0.00 0.00 0.00 77
20260902042518 65 288 0.0 0.0 0.00 0.00 0.00 76
20260902042315 65 288 0.0 0.0 0.00 0.00 0.00 76
20260902041913 66 288 0.0 0.0 0.00 0.00 0.00 77
20260902041710 66 288 0.0 1.7 0.00 0.00 0.00 77
20260902041509 66 288 0.0 1.7 0.00 0.00 0.00 77
20260902041307 66 288 0.0 1.7 0.00 0.00 0.00 77
20260902041103 66 288 0.0 2.6 0.00 0.00 0.00 77
20260902040901 65 299 0.9 2.6 0.00 0.00 0.00 77
20260902040701 66 298 0.9 3.5 0.00 0.00 0.00 77
20260902040457 65 309 1.7 3.5 0.00 0.00 0.00 76
20260902040255 65 312 1.7 3.5 0.00 0.00 0.00 75
20260902040056 65 310 1.7 1.7 0.00 0.00 0.00 75
20260902035854 66 303 1.7 1.7 0.00 0.00 0.00 74
20260902035650 66 303 0.9 1.7 0.00 0.00 0.00 74
20260902035450 66 306 0.9 1.7 0.00 0.00 0.00 74
20260902035248 66 277 0.0 1.7 0.00 0.00 0.00 74
20260902035046 66 296 0.9 4.3 0.00 0.00 0.00 74
20260902034844 66 296 0.9 4.3 0.00 0.00 0.00 74
20260902034640 66 295 1.7 4.3 0.00 0.00 0.00 74
20260902034438 66 293 2.6 4.3 0.00 0.00 0.00 74
20260902034238 66 293 1.7 0.0 0.00 0.00 0.00 73
20260902034036 66 286 1.7 0.0 0.00 0.00 0.00 73
20260902033835 66 285 1.7 0.0 0.00 0.00 0.00 73
20260902033631 66 260 0.0 0.0 0.00 0.00 0.00 72
20260902033429 67 260 0.0 0.0 0.00 0.00 0.00 71
20260902033229 67 260 0.0 0.0 0.00 0.00 0.00 70
20260902033027 67 260 0.0 0.0 0.00 0.00 0.00 70
20260902032823 67 260 0.0 0.0 0.00 0.00 0.00 70
20260902032621 67 260 0.0 0.9 0.00 0.00 0.00 69
20260902032217 67 257 0.0 1.7 0.00 0.00 0.00 68
20260902032016 67 257 0.0 1.7 0.00 0.00 0.00 68
20260902031612 68 265 0.0 0.0 0.00 0.00 0.00 68
20260902031410 67 257 0.0 0.0 0.00 0.00 0.00 67
20260902031208 68 257 0.0 0.0 0.00 0.00 0.00 67
20260902031008 68 257 0.0 0.0 0.00 0.00 0.00 67
20260902030806 68 257 0.0 0.0 0.00 0.00 0.00 66
20260902030602 68 257 0.0 0.0 0.00 0.00 0.00 66
20260902030400 68 257 0.0 0.0 0.00 0.00 0.00 66
20260902030158 68 257 0.0 0.0 0.00 0.00 0.00 66
20260902025957 68 257 0.0 0.0 0.00 0.00 0.00 65
20260902025756 68 257 0.0 0.0 0.00 0.00 0.00 65
20260902025554 68 257 0.0 0.0 0.00 0.00 0.00 65
20260902025351 69 257 0.0 0.0 0.00 0.00 0.00 64
20260902025149 69 257 0.0 4.3 0.00 0.00 0.00 64
20260902024947 69 257 0.0 4.3 0.00 0.00 0.00 64
20260902024745 69 257 0.0 2.6 0.00 0.00 0.00 63
20260902024543 69 257 0.0 2.6 0.00 0.00 0.00 63
20260902024341 69 296 0.0 2.6 0.00 0.00 0.00 63
20260902024140 69 288 1.7 2.6 0.00 0.00 0.00 62
20260902023737 69 250 0.0 2.6 0.00 0.00 0.00 61
20260902023533 70 250 0.0 2.6 0.00 0.00 0.00 60
20260902023333 70 250 0.0 2.6 0.00 0.00 0.00 60
20260902022929 70 275 2.6 6.1 0.00 0.00 0.00 59
20260902022725 70 286 1.7 5.2 0.00 0.00 0.00 58
20260902022524 70 282 1.7 5.2 0.00 0.00 0.00 58
20260902022322 71 298 0.9 5.2 0.00 0.00 0.00 57
20260902022120 71 285 1.7 5.2 0.00 0.00 0.00 57
20260902021918 71 272 3.5 5.2 0.00 0.00 0.00 57
20260902021716 71 288 3.5 6.1 0.00 0.00 0.00 56
20260902021515 72 281 3.5 6.1 0.00 0.00 0.00 56
20260902021312 72 260 0.0 6.1 0.00 0.00 0.00 55
20260902021112 72 267 4.3 7.0 0.00 0.00 0.00 55
20260902020909 72 255 3.5 7.0 0.00 0.00 0.00 55
20260902020708 72 264 4.3 7.8 0.00 0.00 0.00 55
20260902020303 72 267 4.3 7.8 0.00 0.00 0.00 54
20260902015900 72 279 4.3 7.8 0.00 0.00 0.00 54
20260902015658 73 264 6.1 7.0 0.00 0.00 0.00 53
20260902015456 73 275 5.2 7.0 0.00 0.00 0.00 53
20260902015253 73 285 5.2 7.0 0.00 0.00 0.00 53
20260902015052 73 271 5.2 7.0 0.00 0.00 0.00 53
20260902014850 73 272 5.2 7.0 0.00 0.00 0.00 53
20260902014646 74 260 2.6 7.0 0.00 0.00 0.00 53
20260902014444 74 274 4.3 7.0 0.00 0.00 0.00 53
20260902014242 74 282 4.3 7.8 0.00 0.00 0.00 53
20260902014042 74 286 3.5 7.8 0.00 0.00 0.00 53
20260902013841 74 274 5.2 7.8 0.00 0.00 0.00 53
20260902013638 74 282 3.5 7.8 0.00 0.00 0.00 53
20260902013435 74 277 7.0 7.8 0.00 0.00 0.00 52
20260902013234 74 265 6.1 7.0 0.00 0.00 0.00 52
20260902013032 74 285 7.0 7.0 0.00 0.00 0.00 51
20260902012830 74 271 3.5 7.0 0.00 0.00 0.00 52
20260902012627 74 286 4.3 7.8 0.00 0.00 0.00 52
20260902012425 74 286 4.3 7.8 0.00 0.00 0.00 52
20260902012224 74 271 1.7 7.8 0.00 0.00 0.00 52
20260902012030 74 268 7.0 7.8 0.00 0.00 0.00 52
20260902012022 74 268 7.0 7.8 0.00 0.00 0.00 52
20260902011821 74 272 6.1 7.8 0.00 0.00 0.00 52
20260902011618 74 271 3.5 7.0 0.00 0.00 0.00 52
20260902011417 74 265 7.0 7.0 0.00 0.00 0.00 51
20260902011215 75 264 5.2 8.7 0.00 0.00 0.00 52
20260902010810 75 286 3.5 8.7 0.00 0.00 0.00 52
20260902010612 74 278 5.2 9.6 0.00 0.00 0.00 52
20260902010608 74 278 5.2 9.6 0.00 0.00 0.00 52
20260902010405 74 298 3.5 9.6 0.00 0.00 0.00 53
20260902010205 75 261 4.3 7.8 0.00 0.00 0.00 53
20260902005759 75 281 5.2 7.8 0.00 0.00 0.00 52
20260902005557 75 316 3.5 8.7 0.00 0.00 0.00 52
20260902005355 75 278 7.0 8.7 0.00 0.00 0.00 51
20260902005153 75 244 0.9 7.8 0.00 0.00 0.00 52
20260902004953 75 274 3.5 7.8 0.00 0.00 0.00 52
20260902004751 75 262 7.0 7.8 0.00 0.00 0.00 52
20260902004547 76 285 5.2 8.7 0.00 0.00 0.00 52
20260902004346 76 272 4.3 8.7 0.00 0.00 0.00 52
20260902004144 75 253 5.2 9.6 0.00 0.00 0.00 52
20260902003943 75 272 2.6 9.6 0.00 0.00 0.00 53
20260902003740 76 274 7.0 10.4 0.00 0.00 0.00 52
20260902003538 75 279 6.1 10.4 0.00 0.00 0.00 52
20260902003336 75 278 5.2 10.4 0.00 0.00 0.00 52
20260902003134 75 274 4.3 9.6 0.00 0.00 0.00 53
20260902002932 75 289 6.1 9.6 0.00 0.00 0.00 53
20260902002326 76 272 6.1 9.6 0.00 0.00 0.00 52
20260902002124 76 264 5.2 10.4 0.00 0.00 0.00 51
20260902001923 76 296 4.3 10.4 0.00 0.00 0.00 52
20260902001720 76 261 6.1 10.4 0.00 0.00 0.00 52
20260902001518 76 272 7.8 10.4 0.00 0.00 0.00 52
20260902001316 76 286 7.0 10.4 0.00 0.00 0.00 52
20260902001116 77 247 7.0 8.7 0.00 0.00 0.00 51
20260902000912 77 279 4.3 8.7 0.00 0.00 0.00 51
20260902000712 76 277 5.2 11.3 0.00 0.00 0.00 52
20260902000508 77 284 4.3 11.3 0.00 0.00 0.00 52
20260902000308 76 277 2.6 11.3 0.00 0.00 0.00 52
20260902000104 76 251 4.3 11.3 0.00 0.00 0.00 53
20260901235904 75 279 7.8 11.3 0.00 0.00 0.00 52
20260901235701 76 241 9.6 13.0 0.00 0.00 0.00 52
20260901235500 76 271 4.3 13.0 0.00 0.00 0.00 52
20260901235257 76 282 6.1 13.0 0.00 0.00 0.00 53
20260901235056 76 250 6.1 13.0 0.00 0.00 0.00 54
20260901234853 75 261 7.8 13.0 0.00 0.00 0.00 53
20260901234652 75 289 7.8 11.3 0.00 0.00 0.00 53
20260901234449 75 293 5.2 11.3 0.00 0.00 0.00 53
20260901234247 76 265 7.8 11.3 0.00 0.00 0.00 52
20260901234045 76 248 4.3 11.3 0.00 0.00 0.00 53
20260901233845 76 261 7.0 11.3 0.00 0.00 0.00 53
20260901233641 76 284 6.1 11.3 0.00 0.00 0.00 52
20260901233441 76 275 6.1 11.3 0.00 0.00 0.00 52
20260901233035 77 258 7.8 11.3 0.00 0.00 0.00 52
20260901232835 77 271 6.1 11.3 0.00 0.00 0.00 52
20260901232631 76 271 7.0 12.2 0.00 0.00 0.00 52
20260901232429 76 275 8.7 12.2 0.00 0.00 0.00 52
20260901232227 76 260 10.4 12.2 0.00 0.00 0.00 52
20260901232027 77 268 7.8 12.2 0.00 0.00 0.00 51
20260901231825 77 198 3.5 12.2 0.00 0.00 0.00 52
20260901231621 77 255 11.3 12.2 0.00 0.00 0.00 52
20260901231421 77 258 9.6 12.2 0.00 0.00 0.00 51
20260901231017 78 271 0.0 10.4 0.00 0.00 0.00 51
20260901230815 78 222 0.9 10.4 0.00 0.00 0.00 51
20260901230411 77 268 10.4 11.3 0.00 0.00 0.00 51
20260901230210 78 258 4.3 9.6 0.00 0.00 0.00 51
20260901230006 78 258 7.0 9.6 0.00 0.00 0.00 51
20260901225805 78 248 7.8 9.6 0.00 0.00 0.00 50
20260901225602 78 230 4.3 13.0 0.00 0.00 0.00 51
20260901225402 78 258 7.0 13.0 0.00 0.00 0.00 51
20260901225200 78 203 0.9 12.2 0.00 0.00 0.00 51
20260901224957 78 241 9.6 12.2 0.00 0.00 0.00 51
20260901224756 78 267 2.6 12.2 0.00 0.00 0.00 51
20260901224554 78 270 5.2 13.0 0.00 0.00 0.00 51
20260901224352 78 229 5.2 13.0 0.00 0.00 0.00 51
20260901224151 78 281 7.8 11.3 0.00 0.00 0.00 51
20260901223948 78 192 0.9 11.3 0.00 0.00 0.00 52
20260901223749 77 199 4.3 13.9 0.00 0.00 0.00 52
20260901223543 77 258 7.8 13.9 0.00 0.00 0.00 52
20260901223342 77 251 7.8 13.9 0.00 0.00 0.00 52
20260901223141 77 264 7.0 14.8 0.00 0.00 0.00 52
20260901222937 77 264 11.3 14.8 0.00 0.00 0.00 51
20260901222736 77 251 8.7 16.5 0.00 0.00 0.00 51
20260901222534 77 253 7.8 16.5 0.00 0.00 0.00 51
20260901222333 77 262 7.8 16.5 0.00 0.00 0.00 51
20260901221727 78 243 9.6 13.9 0.00 0.00 0.00 50
20260901221523 78 271 5.2 13.9 0.00 0.00 0.00 49
20260901221323 78 262 9.6 13.9 0.00 0.00 0.00 49
20260901221121 78 282 8.7 13.0 0.00 0.00 0.00 50
20260901220920 78 268 7.8 13.0 0.00 0.00 0.00 48
20260901220717 78 232 9.6 13.9 0.00 0.00 0.00 49
20260901220513 79 264 9.6 13.9 0.00 0.00 0.00 50
20260901220313 78 275 4.3 13.9 0.00 0.00 0.00 50
20260901220116 78 265 7.0 13.0 0.00 0.00 0.00 50
20260901220111 78 265 7.0 13.0 0.00 0.00 0.00 50
20260901215909 78 285 9.6 13.0 0.00 0.00 0.00 50
20260901215707 78 257 9.6 13.9 0.00 0.00 0.00 50
20260901215306 78 272 7.0 13.9 0.00 0.00 0.00 51
20260901215102 78 262 7.0 12.2 0.00 0.00 0.00 51
20260901214900 78 247 13.0 12.2 0.00 0.00 0.00 51
20260901214456 78 260 11.3 15.6 0.00 0.00 0.00 52
20260901214254 77 246 8.7 15.6 0.00 0.00 0.00 52
20260901214050 77 272 12.2 14.8 0.00 0.00 0.00 52
20260901213850 77 270 13.0 14.8 0.00 0.00 0.00 51
20260901213648 78 251 10.4 14.8 0.00 0.00 0.00 50
20260901213446 78 255 6.1 14.8 0.00 0.00 0.00 51
20260901213244 78 246 10.4 13.9 0.00 0.00 0.00 51
20260901213042 78 265 7.8 13.9 0.00 0.00 0.00 51
20260901212840 78 254 11.3 13.9 0.00 0.00 0.00 51
20260901212638 78 262 8.7 13.9 0.00 0.00 0.00 51
20260901212436 78 279 10.4 13.9 0.00 0.00 0.00 51
20260901212234 78 268 11.3 13.0 0.00 0.00 0.00 50
20260901212032 79 265 13.0 13.0 0.00 0.00 0.00 49
20260901211830 79 260 8.7 13.0 0.00 0.00 0.00 50
20260901211628 78 264 7.0 17.4 0.00 0.00 0.00 50
20260901211426 79 272 7.8 17.4 0.00 0.00 0.00 51
20260901211225 79 261 7.8 14.8 0.00 0.00 0.00 51
20260901211023 78 265 7.0 14.8 0.00 0.00 0.00 51
20260901210618 78 278 12.2 14.8 0.00 0.00 0.00 51
20260901210417 78 291 5.2 14.8 0.00 0.00 0.00 51
20260901210213 78 247 4.3 15.6 0.00 0.00 0.00 51
20260901210011 78 267 12.2 15.6 0.00 0.00 0.00 51
20260901205811 78 265 11.3 15.6 0.00 0.00 0.00 51
20260901205609 79 232 11.3 13.0 0.00 0.00 0.00 49
20260901205407 79 271 7.0 13.0 0.00 0.00 0.00 50
20260901205003 79 261 5.2 14.8 0.00 0.00 0.00 50
20260901204759 78 277 3.5 14.8 0.00 0.00 0.00 51
20260901204559 78 271 11.3 14.8 0.00 0.00 0.00 51
20260901204357 78 267 11.3 14.8 0.00 0.00 0.00 50
20260901204156 79 234 7.0 13.0 0.00 0.00 0.00 50
20260901203952 79 285 8.7 13.0 0.00 0.00 0.00 49
20260901203347 80 268 7.0 11.3 0.00 0.00 0.00 49
20260901203145 79 264 8.7 13.0 0.00 0.00 0.00 49
20260901202943 79 279 6.1 13.0 0.00 0.00 0.00 48
20260901202740 79 261 5.2 13.0 0.00 0.00 0.00 49
20260901202338 79 293 6.1 13.0 0.00 0.00 0.00 48
20260901201934 80 261 8.7 12.2 0.00 0.00 0.00 47
20260901201732 80 278 6.1 13.0 0.00 0.00 0.00 46
20260901201530 80 261 8.7 13.0 0.00 0.00 0.00 47
20260901201126 79 258 7.8 11.3 0.00 0.00 0.00 48
20260901200924 80 267 5.2 11.3 0.00 0.00 0.00 47
20260901200520 80 265 7.8 11.3 0.00 0.00 0.00 47
20260901200318 80 250 7.8 11.3 0.00 0.00 0.00 47
20260901200116 80 243 3.5 11.3 0.00 0.00 0.00 48
20260901195914 80 271 7.0 11.3 0.00 0.00 0.00 47
20260901195712 80 240 5.2 13.0 0.00 0.00 0.00 47
20260901195510 80 275 7.8 13.0 0.00 0.00 0.00 48
20260901195309 80 285 3.5 13.0 0.00 0.00 0.00 47
20260901195106 79 275 7.0 9.6 0.00 0.00 0.00 48
20260901194904 79 257 9.6 9.6 0.00 0.00 0.00 47
20260901194703 80 286 5.2 13.9 0.00 0.00 0.00 47
20260901194501 80 275 7.8 13.9 0.00 0.00 0.00 48
20260901194259 80 246 7.8 13.9 0.00 0.00 0.00 47
20260901194056 79 261 10.4 8.7 0.00 0.00 0.00 46
20260901193855 80 264 8.7 8.7 0.00 0.00 0.00 45
20260901193047 79 227 2.6 12.2 0.00 0.00 0.00 47
20260901192843 79 264 4.3 12.2 0.00 0.00 0.00 46
20260901192643 79 260 8.7 12.2 0.00 0.00 0.00 46
20260901192441 79 274 5.2 12.2 0.00 0.00 0.00 46